sat.trackr.live / text

‹ back to catalog

IRNSS-1E

NORAD 41241 · 2016-003A

PAYLOAD ACTIVE UNKNOWN

§ Identity

Operator
Country
IND
Launch date
2016-01-20
Launch site
SRILR
Launch vehicle
Mass (kg)
RCS (m²)
9.94

Purposes: comms, nav

External: N2YO · Heavens-Above · Gunter

§ Orbital elements

Epoch: 2026-09-19T20:04:33.026304Z

Period
1,436.07 min
Inclination
33.4407°
Eccentricity
0.0021595
Mean motion
1.00273367 rev/d
Perigee alt
35,695.1 km
Apogee alt
35,877.2 km
Semi-major
42,164.3 km
B*
0.0000e+0
RAAN
58.3825°
Arg perigee
180.7187°
Mean anomaly
172.6291°
Rev number
3,902

§ Raw data

IRNSS-1E1 41241U 16003A   26262.83649336 -.00000286  00000+0  00000+0 0  99972 41241  33.4407  58.3825 0021595 180.7187 172.6291  1.00273367 39021

JSON: /api/v1/satellites/41241 · /tle

For live sub-satellite position, see the globe view (requires WebGL).

§ Visibility from observer

Set your observer location to see the next 7 days of passes ≥ 10°. The values pass through the URL so the page stays shareable.

No JS? Fill the form by hand. The geolocation button needs JavaScript.